Regional Weather Roundup
Issued by NWS

Home | Current Version | Previous Version | Graphics & Text | Print | Product List | Glossary On
Versions: 1 2 3 4 5 6 7 8 9 10 11 12 13 14 15 16 17 18 19 20 21 22 23 24 25 26 27 28 29 30 31 32 33 34 35 36 37 38 39 40 41 42 43 44 45 46 47 48 49 50
615
ASUS43 KOAX 281110
RWRNE

WEATHER ROUNDUP FOR NEBRASKA
NATIONAL WEATHER SERVICE OMAHA NE
600 AM CDT WED SEP 28 2016

NOTES: SATELLITE DATA IS BEING USED TO AUGMENT CLOUD COVER ABOVE
       12000 FEET.
       "FAIR" INDICATES FEW OR NO CLOUDS BELOW 12,000 FEET WITH NO
       SIGNIFICANT WEATHER AND/OR OBSTRUCTIONS TO VISIBILITY.

  * THESE STATIONS DO NOT REPORT WEATHER SUCH AS RAIN...SNOW OR FOG.

NEZ001>004-019>022-054>056-281200-
NEBRASKA PANHANDLE

CITY           SKY/WX    TMP DP  RH WIND       PRES   REMARKS
SCOTTSBLUFF    CLEAR     48  39  71 NW10      30.22R
ALLIANCE       CLEAR     43  39  86 W6        30.19R
CHADRON        CLEAR     44  41  89 SW6       30.19R
SIDNEY         CLEAR     43  37  79 NW8       30.21R
$$

NEZ057>060-069>072-079>082-281200-
SOUTHWEST NEBRASKA

CITY           SKY/WX    TMP DP  RH WIND       PRES   REMARKS
NORTH PLATTE   CLEAR     43  39  86 CALM      30.13R
IMPERIAL       CLEAR     49  38  65 NW6       30.14R
LEXINGTON      CLEAR     44  41  89 NW6       30.11R
MCCOOK         CLEAR     46  41  82 SW3       30.11R
OGALLALA       CLEAR     42  39  89 W6        30.16R
$$

NEZ005>010-023>029-035>040-094-281200-
NORTH CENTRAL NEBRASKA

CITY           SKY/WX    TMP DP  RH WIND       PRES   REMARKS
VALENTINE      CLOUDY    41  37  86 W3        30.14R
AINSWORTH      CLEAR     48  43  82 NW5       30.14R
BROKEN BOW     CLEAR     47  42  83 N9        30.11R
O`NEILL        CLOUDY    46  39  78 N9        30.12R
ORD            CLEAR     45  41  86 CALM      30.10R
THEDFORD       CLEAR     44  41  89 CALM      30.15R
$$

NEZ041-046>049-061>064-073>077-083>087-281200-
SOUTH CENTRAL NEBRASKA

CITY           SKY/WX    TMP DP  RH WIND       PRES   REMARKS
GRAND ISLAND   CLEAR     50  44  80 N8        30.08R
AURORA         CLEAR     50  47  89 N8        30.07R
HASTINGS       CLEAR     51  44  77 N9        30.07R
HEBRON         CLEAR     53  46  78 N3        30.03R
HOLDREGE       CLEAR     50  42  74 NW7       30.08R
KEARNEY *      CLEAR     48  41  76 NW7       30.09R
YORK           CLEAR     48  45  87 N5        30.06R
$$

NEZ011>018-030>034-042>045-281200-
NORTHEAST NEBRASKA

CITY           SKY/WX    TMP DP  RH WIND       PRES   REMARKS
NORFOLK        CLOUDY    43  37  79 N7        30.08R
ALBION         CLEAR     45  40  84 N3        30.09R
BLAIR          PTCLDY    49  42  78 N6        30.03R
FREMONT        PTCLDY    47  41  80 NW5       30.05R
TEKAMAH        PTCLDY    45  40  82 N8        30.04R
WAYNE          CLOUDY    41  38  89 CALM      30.09R
$$

NEZ050>053-065>068-078-088>093-281200-
SOUTHEAST NEBRASKA

CITY           SKY/WX    TMP DP  RH WIND       PRES   REMARKS
LINCOLN        CLEAR     49  44  83 N9        30.05R
OMAHA EPPLEY   PTCLDY    47  42  83 N10       30.02R
BEATRICE       CLEAR     54  46  76 N8        30.00R
FALLS CITY     CLEAR     54  47  77 N6        29.96R
NEBRASKA CITY  CLEAR     52  37  56 N6        30.01R
PLATTSMOUTH    PTCLDY    51  40  67 N5        30.01R
$$

NEZ044-045-051>053-067-281200-
OMAHA AREA

CITY           SKY/WX    TMP DP  RH WIND       PRES   REMARKS
OMAHA EPPLEY   PTCLDY    47  42  83 N10       30.02R
BLAIR          PTCLDY    49  42  78 N6        30.03R
FREMONT        PTCLDY    47  41  80 NW5       30.05R
MILLARD        CLEAR     52  42  68 CALM      30.03R
OFFUTT AFB     CLEAR     51  43  73 N6        30.01R
PLATTSMOUTH    PTCLDY    51  40  67 N5        30.01R
WAHOO          FAIR      47  43  85 N6        30.04R
$$




USA.gov is the U.S. government's official web portal to all federal, state and local government web resources and services.